Погода Нижний Новгород

Погода Нижний Новгород : погода сейчас, прогноз погоды и архив. Всё, что Вы хотите узнать о погоде Нижний Новгород!

Хотите узнать прогноз погоды в Нижнем Новгороде? Тогда Вам сюда: Погода в Нижнем Новгороде

Поиск расширенной информации на нашем сайте:

Другие новости

Новости СМИ2

Главная страница сайта

Новости сайта

03.07.2017

Напоминаем, что на нашем специализированном сайте Метеоцентр.Азия вы можете получить высокодетализированные автоматические прогнозы погоды по пунктам России, СНГ и мира в авиационном формате (включающие направление и скорость ветра, видимость, явления погоды, количество и форму облачности, нижнюю и верхнюю границу облачности).

Рекомендуем: Пуллер макси для собак: puller maxi игрушка для собак пуллер макси.

Погода Нижний Новгород - сегодня

Время (UTC), дата Ветер
(°,м/с) 
Видим.   Явления Облачность Т
(°С)
Тd
(°С)
f(%) Тe
(°С)
Pmin
(гПа)
dP
(гПа)
Po
(мм)
O2
(г/м3)
Тmin Tmax R s Состояние
почвы
00 10.08.18 280 (З) 1-2{02}  10 км    ясно 
+11.7 +11 95 +15  1025.9  0.2  755  290           
03 10.08.18 280 (З) 1-2{02}  10 км    3/0 средняя 
[Ac trans]
+14.8 +10.9 77 +18  1026.1  0.4  755  287  +11        влажная 
12 10.08.18 320 (СЗ) 2-8{08}  10 км    3/1 1000 м верхняя 
[Cu hum|Ci fib]
+26.8 +10.7 36 +29  1022.6  -1.6  753  275           
15 10.08.18 280 (З) 2-6{08}  10 км    5/0 верхняя 
[Ci fib]
+26 +12.1 42 +30  1021.6  -1  753  275    +27.5       
03 11.08.18 280 (З) 1-3{03}  10 км    4/3 1000 м верхняя 
[Cu hum|Ci fib]
+17.7 +14.2 80 +26  1021.9  -0.2  752  282  +15.9        сухая 
15 11.08.18 260 (З) 3-5{07}  10 км    4/4 1000 м 
[Cu hum]
+26.5 +13.2 44 +32  1017.2  -1.3  749  273    +28.7       
00 12.08.18 тихо () -0{02}  10 км    ясно 
+14.9 +11.9 82 +19  1017.4  -0.4  749  284           
03 12.08.18 тихо () -0{02}  10 км    ясно 
+17.9 +12.7 72 +23  1016.6  -0.5  749  281  +14.6        сухая 
06 12.08.18 270 (З) 2-3{03}  10 км    ясно 
+22.4 +13.8 58 +29  1015.4  -0.9  748  276           
15 12.08.18 270 (З) 1-4{06}  10 км    3/0 верхняя 
[Ci fib]
+26.7 +10.7 37 +29  1011.1  -1.6  745  271    +27.7       
18 12.08.18 тихо () -0{04}  10 км    ясно 
+21.1 +12 56 +25  1010.2  -1.2  744  276           
21 12.08.18 тихо () -1{03}  10 км    ясно 
+21.1 +12.2 57 +26  1009.4  -0.8  743  276           
03 13.08.18 270 (З) 1-3{04}  10 км    8/3 600 м верхняя 
[Cu hum|Ci fib]
+17.9 +12.9 73 +24  1009.5  0.5  743  279  +17.3        сухая 
15 13.08.18 260 (З) 4-9{09}  10 км    10/4 600 м средняя 
[Sc diur, vesp|Ac trans]
+21.7 +6.4 37 +22  1007.8  -0.6  742  276    +24       
03 14.08.18 280 (З) 1-3{04}  10 км    3/0 средняя 
[Ac trans]
+14.4 +9.3 71 +16  1011.1  1.3  744  283  +14.1        сухая 
15 14.08.18 310 (СЗ) 1-3{06}  10 км    8/8 1000 м 
[Cu med, cong]
+21.6 +7.3 40 +22  1013.2  0.4  746  277    +23.5       
21 14.08.18 тихо () -1{01}  10 км    ясно 
+12.9 +9.2 78 +13  1015.8  0.8  748  286           
03 15.08.18 тихо () -0{01}  10 км    8/1 1000 м верхняя 
[Cu hum|Ci fib]
+14.3 +9.9 75 +15  1016.7  0.4  748  285  +12        сухая 
15 15.08.18 240 (ЮЗ) 1-3{07}  10 км  слаб. ливневой дождь  10/10 600 м кучево-дожд. 
[Cb cap]
+23.9 +13.2 51 +30  1011.6  -1.5  745  274    +26.4  0.0     
03 16.08.18 290 (З) 2-6{07}  10 км    10/10 1000 м 
[Sc]
+17.9 +16.4 91 +30  1010.2  744  278  +17.8      влажная 
15 16.08.18 340 (С) 2-5{06}  10 км  в посл. час ливневой дождь  8/6 300 м кучево-дожд., средняя 
[Cb cap|Ac trans]
+17.6 +14.7 83 +26  1015.7  1.3  748  280    +21     
21 16.08.18 020 (С) 1-3{05}  10 км    ясно 
+13.7 +12 89 +19  1019.2  1.4  750  286           
00 17.08.18 тихо () -0{03}  10 км    ясно 
+11.1 +10.3 95 +13  1020.5  1.1  751  289           
03 17.08.18 350 (С) 1-1{01}  4000 м  местами туман поземный  ясно 
+11.9 +11.3 96 +16  1022.1  1.6  752  288  +10.3        влажная 
06 17.08.18 010 (С) 1-3{03}  10 км    ясно 
+17 +11.9 72 +22  1022.7  0.9  753  283           
Время (UTC), дата Ветер
(°,м/с) 
Видим.   Явления Облачность Т
(°С)
Тd
(°С)
f(%) Тe
(°С)
Pmin
(гПа)
dP
(гПа)
Po
(мм)
O2
(г/м3)
Тmin Tmax R s Состояние
почвы

Для получения пояснительной информации подведите курсор к названию столбца.

ПОГОДА Нижний Новгород - архив

Всё, что Вы хотите узнать о погоде Нижний Новгород - удобно и подробно!

Выберите нужную дату (начиная с 1 января 2015* года) и нажмите кнопку "Найти".
Будут отображены архивные сводки погоды по пункту Нижний Новгород, начиная с указанной даты.


Отображать данные в формате CSV (для использования в таблицах Excel)


Внимание! Наш архив погоды предназначен исключительно для личного некоммерческого использования в познавательных целях. Если Вам необходимы официальные справки о состоянии погоды (для производственных, юридических, коммерческих и т.п. целей), обращайтесь в органы Росгидромета.

*Примечание: данная дата относится к архиву по метеостанциям СССР (Россия, СНГ, Балтия).
Архив по метеостанциям Зарубежной Европы и Азии (кроме Китая) хранится 10 дней, по другим регионам земного шара (Китай, Африка, Америка, Австралия, Океания) - 1 день.

Нижний Новгород - район местоположения метеостанции


Название, широта, долгота, высота метеостанции:
Нижний Новгород (Мыза) 56.3°ш. 44°д. 157 м над ур. моря [Российская Федерация]

Дополнительная информация

В oтличие oт бoльшинства пoгoдных сайтoв мы публикуем пoдрoбную метеoинфoрмацию в детальнoм прoфессиoнальнoм фoрмате.

Характеристики температуры и влажнoсти вoздуха измеряются на высoте 2 м в тени вдали oт зданий и деревьев.
Скoрoсть ветра измеряется на высoте 10 м (на урoвне рoста челoвека скoрoсть ветра ниже в 1.5-2 раза). Если метеoстанция нахoдится в гoрoде или в лесу, тo скoрoсть ветра занижена на 2-4 м/с пo сравнению с oткрытым местoм. Скoрoсть ветра над акватoриями крупных рек и oзёр, а также на вершинах хoлмoв на 2-5 м/с выше, чем в oбычных услoвиях.
Атмoсфернoе давление в разных тoчках местнoсти мoжет значительнo oтличаться oт давления на метеoстанции, в зависимoсти oт услoвий рельефа (при пoдъёме на 10 м давление пoнижается примернo на 1 мм рт.ст.).